DW8534 Weather Reports


Display with metric or nautical units.
time (UTC)temp
F
wind
direction
speed
MPH
gust
MPH
rain 1hr
in
rain 24hr
in
rain mn
in
humidity
%
barometer
mb
20260504181540 76 175 13.0 0.0 0.00 0.00 0.00 67 1007.4
20260504180037 75 166 10.0 0.0 0.00 0.00 0.00 66 1007.5
20260504174538 75 151 10.0 0.0 0.00 0.00 0.00 65 1007.7
20260504173035 74 243 10.0 0.0 0.00 0.00 0.00 68 1007.9
20260504171541 75 202 9.0 0.0 0.00 0.00 0.00 65 1008.1
20260504081539 62 180 5.0 0.0 0.00 0.00 0.00 75 1010.2
20260504050008 65 157 4.0 0.0 0.00 0.00 0.00 64 1012.3
20260504044510 65 146 3.0 0.0 0.00 0.00 0.00 64 1012.5
20260504043009 65 148 2.0 0.0 0.00 0.00 0.00 64 1012.4
20260504041507 65 150 2.0 0.0 0.00 0.00 0.00 64 1012.5
20260504040007 65 153 3.0 0.0 0.00 0.00 0.00 65 1012.6
20260504034505 65 145 3.0 0.0 0.00 0.00 0.00 63 1012.6
20260504033007 65 157 2.0 0.0 0.00 0.00 0.00 62 1012.7
20260504031505 66 147 2.0 0.0 0.00 0.00 0.00 60 1012.6
20260504030004 67 154 3.0 0.0 0.00 0.00 0.00 58 1012.4
20260504024507 67 163 3.0 0.0 0.00 0.00 0.00 57 1012.4
20260504023003 67 173 3.0 0.0 0.00 0.00 0.00 57 1012.4
20260504021504 68 149 2.0 0.0 0.00 0.00 0.00 57 1012.4
20260504020003 68 153 2.0 0.0 0.00 0.00 0.00 57 1012.4
20260504014503 68 150 3.0 0.0 0.00 0.00 0.00 56 1012.3
20260504013001 69 146 3.0 0.0 0.00 0.00 0.00 54 1012.2
20260504011501 70 130 3.0 0.0 0.00 0.00 0.00 52 1012.2
20260504010101 71 149 4.0 0.0 0.00 0.00 0.00 50 1012.3
20260504004600 72 161 4.0 0.0 0.00 0.00 0.00 50 1012.3
20260504003104 73 149 4.0 0.0 0.00 0.00 0.00 48 1012.3
20260504001616 74 154 3.0 0.0 0.00 0.00 0.00 46 1012.3
20260504000058 75 152 7.0 0.0 0.00 0.00 0.00 43 1012.4
20260503234558 76 139 5.0 0.0 0.00 0.00 0.00 45 1012.4
20260503233057 76 190 6.0 0.0 0.00 0.00 0.00 42 1012.6
20260503231558 76 194 5.0 0.0 0.00 0.00 0.00 42 1012.6
20260503230059 77 175 5.0 0.0 0.00 0.00 0.00 39 1012.8
20260503224555 77 163 5.0 0.0 0.00 0.00 0.00 39 1012.8
20260503223055 76 153 6.0 0.0 0.00 0.00 0.00 44 1012.9
20260503221555 77 203 5.0 0.0 0.00 0.00 0.00 43 1012.9
20260503220054 78 207 7.0 0.0 0.00 0.00 0.00 39 1013.2
20260503214552 78 166 7.0 0.0 0.00 0.00 0.00 42 1013.4
20260503213101 79 194 5.0 0.0 0.00 0.00 0.00 41 1013.5
20260503211553 79 132 6.0 0.0 0.00 0.00 0.00 42 1013.8
20260503210101 79 190 4.0 0.0 0.00 0.00 0.00 43 1013.9
20260503204548 78 171 5.0 0.0 0.00 0.00 0.00 43 1014.3
20260503203052 79 200 5.0 0.0 0.00 0.00 0.00 42 1014.5
20260503201546 78 200 5.0 0.0 0.00 0.00 0.00 43 1014.8
20260503200049 78 156 5.0 0.0 0.00 0.00 0.00 41 1014.9
20260503194544 78 210 5.0 0.0 0.00 0.00 0.00 48 1015.1
20260503193048 78 225 5.0 0.0 0.00 0.00 0.00 49 1015.5
20260503191542 78 212 7.0 0.0 0.00 0.00 0.00 46 1015.7
20260503190041 77 150 6.0 0.0 0.00 0.00 0.00 47 1016.0
20260503184553 78 199 6.0 0.0 0.00 0.00 0.00 49 1016.1
20260503183052 77 188 9.0 0.0 0.00 0.00 0.00 45 1016.2